Total_Precipitation_Accumulation
0.10 0.17 0.31 0.33 0.30 0.20 0.08 0.05 0.04 0.04 0.07 0.06 0.03 0.02 0.00 0.00 0.00 0.00 0.00 0.00 0.00 0.00 0.00 0.00 0.00 0.00 0.00 0.00 0.00 0.00 0.02 0.08 0.15 0.18 0.19 0.27 0.35 0.34 0.35 0.38 0.31 0.23 0.14 0.16
0.05 0.09 0.13 0.10 0.08 0.08 0.08 0.10 0.10 0.06 0.05 0.03 0.02 0.01 0.00 0.00 0.00 0.00 0.00 0.00 0.00 0.00 0.00 0.00 0.00 0.00 0.00 0.00 0.00 0.00 0.00 0.02 0.02 0.05 0.10 0.17 0.27 0.25 0.25 0.32 0.37 0.39 0.25 0.16
0.04 0.04 0.03 0.04 0.05 0.06 0.08 0.11 0.12 0.09 0.06 0.03 0.02 0.01 0.00 0.00 0.00 0.00 0.00 0.00 0.00 0.00 0.00 0.00 0.00 0.00 0.00 0.00 0.00 0.00 0.00 0.01 0.03 0.05 0.07 0.09 0.14 0.14 0.20 0.25 0.32 0.39 0.39 0.35
0.00 0.00 0.01 0.02 0.05 0.09 0.13 0.08 0.07 0.07 0.07 0.06 0.04 0.04 0.00 0.00 0.00 0.00 0.00 0.00 0.00 0.00 0.00 0.00 0.00 0.00 0.00 0.00 0.00 0.00 0.00 0.01 0.03 0.07 0.10 0.10 0.13 0.19 0.20 0.21 0.21 0.21 0.29 0.38
0.00 0.00 0.00 0.00 0.02 0.04 0.06 0.05 0.04 0.05 0.06 0.05 0.03 0.03 0.01 0.00 0.00 0.00 0.00 0.00 0.00 0.00 0.00 0.00 0.00 0.00 0.00 0.00 0.00 0.00 0.00 0.01 0.02 0.06 0.09 0.11 0.13 0.16 0.14 0.11 0.11 0.14 0.18 0.17
0.00 0.00 0.00 0.00 0.00 0.01 0.02 0.03 0.04 0.04 0.06 0.05 0.03 0.04 0.02 0.00 0.01 0.00 0.00 0.00 0.00 0.00 0.00 0.00 0.00 0.00 0.00 0.00 0.00 0.00 0.00 0.00 0.01 0.03 0.05 0.07 0.09 0.09 0.08 0.08 0.10 0.13 0.14 0.12
0.00 0.00 0.00 0.00 0.00 0.01 0.01 0.04 0.08 0.08 0.08 0.07 0.03 0.04 0.02 0.01 0.00 0.00 0.00 0.00 0.00 0.00 0.00 0.00 0.00 0.00 0.00 0.00 0.00 0.00 0.00 0.00 0.01 0.01 0.03 0.03 0.02 0.01 0.02 0.03 0.04 0.06 0.07 0.08
0.00 0.00 0.00 0.00 0.00 0.00 0.00 0.02 0.07 0.10 0.09 0.07 0.04 0.03 0.01 0.00 0.00 0.00 0.00 0.00 0.00 0.00 0.00 0.00 0.00 0.00 0.00 0.00 0.00 0.00 0.00 0.00 0.00 0.00 0.01 0.00 0.00 0.00 0.00 0.01 0.03 0.04 0.05 0.06
0.00 0.00 0.00 0.00 0.00 0.00 0.00 0.00 0.01 0.03 0.03 0.03 0.02 0.01 0.01 0.00 0.00 0.00 0.00 0.00 0.00 0.00 0.00 0.00 0.00 0.00 0.00 0.00 0.00 0.00 0.00 0.00 0.00 0.00 0.00 0.00 0.00 0.00 0.00 0.00 0.03 0.06 0.05 0.04
0.02 0.01 0.00 0.00 0.00 0.00 0.01 0.01 0.01 0.05 0.08 0.06 0.02 0.02 0.02 0.02 0.02 0.02 0.01 0.02 0.05 0.06 0.08 0.05 0.03 0.01 0.00 0.00 0.00 0.00 0.00 0.00 0.00 0.00 0.00 0.00 0.00 0.00 0.00 0.00 0.01 0.02 0.03 0.03
0.02 0.04 0.01 0.00 0.01 0.02 0.05 0.05 0.05 0.09 0.08 0.12 0.12 0.09 0.05 0.07 0.09 0.07 0.05 0.05 0.06 0.06 0.08 0.07 0.08 0.05 0.01 0.00 0.00 0.00 0.00 0.00 0.00 0.00 0.00 0.00 0.00 0.00 0.00 0.00 0.01 0.01 0.02 0.03
0.03 0.06 0.05 0.01 0.02 0.05 0.11 0.15 0.16 0.28 0.23 0.21 0.23 0.15 0.05 0.07 0.11 0.09 0.06 0.05 0.03 0.01 0.01 0.02 0.02 0.02 0.01 0.00 0.00 0.00 0.00 0.00 0.00 0.00 0.00 0.00 0.00 0.00 0.00 0.00 0.00 0.00 0.01 0.01
0.12 0.19 0.16 0.10 0.18 0.24 0.21 0.16 0.15 0.19 0.22 0.21 0.21 0.13 0.06 0.06 0.08 0.09 0.08 0.06 0.03 0.01 0.01 0.01 0.02 0.01 0.00 0.00 0.00 0.00 0.00 0.00 0.00 0.00 0.00 0.00 0.00 0.00 0.00 0.00 0.00 0.00 0.01 0.02
0.16 0.25 0.25 0.24 0.27 0.26 0.15 0.07 0.06 0.10 0.22 0.21 0.21 0.15 0.13 0.10 0.05 0.03 0.02 0.02 0.01 0.01 0.01 0.01 0.01 0.01 0.00 0.00 0.00 0.00 0.00 0.00 0.00 0.00 0.00 0.01 0.01 0.00 0.00 0.00 0.00 0.00 0.01 0.02
0.07 0.10 0.12 0.11 0.08 0.05 0.04 0.03 0.02 0.05 0.11 0.18 0.18 0.13 0.08 0.05 0.02 0.01 0.00 0.00 0.00 0.00 0.00 0.01 0.00 0.00 0.00 0.00 0.00 0.00 0.00 0.00 0.01 0.01 0.02 0.04 0.03 0.02 0.02 0.02 0.01 0.01 0.02 0.02
0.02 0.02 0.02 0.01 0.01 0.01 0.04 0.08 0.08 0.09 0.10 0.14 0.12 0.06 0.01 0.00 0.01 0.01 0.01 0.01 0.01 0.00 0.00 0.00 0.00 0.00 0.00 0.00 0.00 0.00 0.01 0.02 0.03 0.04 0.04 0.04 0.04 0.05 0.07 0.08 0.06 0.03 0.02 0.03
0.00 0.01 0.02 0.02 0.00 0.02 0.16 0.19 0.17 0.13 0.06 0.06 0.04 0.02 0.00 0.01 0.04 0.05 0.05 0.04 0.02 0.01 0.01 0.00 0.00 0.00 0.00 0.00 0.00 0.02 0.03 0.05 0.07 0.07 0.06 0.04 0.04 0.07 0.12 0.15 0.12 0.09 0.07 0.06
0.00 0.03 0.05 0.04 0.05 0.16 0.42 0.35 0.27 0.21 0.07 0.03 0.02 0.00 0.00 0.05 0.08 0.06 0.05 0.06 0.04 0.02 0.01 0.01 0.01 0.01 0.01 0.02 0.03 0.04 0.06 0.09 0.08 0.08 0.08 0.07 0.06 0.09 0.16 0.20 0.21 0.25 0.26 0.21
0.04 0.11 0.13 0.14 0.15 0.28 0.40 0.37 0.34 0.33 0.22 0.05 0.01 0.00 0.00 0.02 0.04 0.03 0.02 0.02 0.02 0.01 0.01 0.01 0.01 0.01 0.01 0.02 0.03 0.03 0.03 0.04 0.04 0.03 0.04 0.04 0.05 0.07 0.10 0.12 0.18 0.28 0.33 0.31
0.08 0.13 0.19 0.21 0.27 0.39 0.33 0.21 0.20 0.28 0.33 0.06 0.01 0.00 0.00 0.00 0.01 0.02 0.02 0.01 0.00 0.00 0.00 0.00 0.00 0.00 0.00 0.00 0.00 0.00 0.00 0.00 0.00 0.00 0.00 0.01 0.01 0.01 0.03 0.05 0.07 0.13 0.16 0.19
0.05 0.11 0.17 0.24 0.42 0.63 0.45 0.24 0.19 0.29 0.30 0.06 0.01 0.00 0.00 0.00 0.00 0.01 0.02 0.01 0.00 0.00 0.00 0.00 0.00 0.00 0.00 0.00 0.00 0.00 0.00 0.00 0.00 0.00 0.00 0.00 0.00 0.00 0.00 0.01 0.02 0.05 0.07 0.10
0.07 0.11 0.16 0.30 0.59 0.82 0.64 0.41 0.32 0.23 0.09 0.02 0.00 0.00 0.00 0.00 0.00 0.00 0.01 0.00 0.00 0.00 0.00 0.00 0.00 0.00 0.00 0.00 0.00 0.00 0.00 0.00 0.00 0.00 0.00 0.00 0.00 0.00 0.00 0.01 0.01 0.01 0.02 0.04
0.02 0.04 0.08 0.21 0.44 0.51 0.46 0.35 0.24 0.17 0.07 0.01 0.00 0.00 0.00 0.00 0.00 0.00 0.00 0.00 0.00 0.00 0.00 0.00 0.00 0.00 0.00 0.00 0.00 0.00 0.00 0.00 0.00 0.00 0.00 0.00 0.00 0.00 0.01 0.01 0.01 0.01 0.02 0.04
0.00 0.00 0.01 0.03 0.09 0.15 0.18 0.18 0.11 0.08 0.05 0.01 0.00 0.00 0.00 0.00 0.00 0.00 0.00 0.00 0.00 0.00 0.00 0.00 0.00 0.00 0.00 0.00 0.00 0.00 0.00 0.00 0.00 0.00 0.00 0.00 0.00 0.00 0.01 0.02 0.02 0.03 0.03 0.05
0.01 0.01 0.01 0.01 0.01 0.02 0.06 0.08 0.07 0.04 0.02 0.00 0.00 0.00 0.00 0.00 0.00 0.00 0.00 0.00 0.00 0.00 0.00 0.00 0.00 0.00 0.00 0.00 0.00 0.00 0.00 0.00 0.00 0.00 0.00 0.00 0.00 0.00 0.01 0.00 0.01 0.02 0.02 0.03
0.00 0.01 0.01 0.01 0.00 0.01 0.03 0.04 0.03 0.02 0.01 0.00 0.00 0.00 0.00 0.00 0.00 0.00 0.00 0.00 0.00 0.00 0.00 0.00 0.00 0.00 0.00 0.00 0.00 0.00 0.00 0.00 0.00 0.00 0.00 0.00 0.00 0.00 0.00 0.00 0.00 0.00 0.01 0.04